Year,Month,Day,Hour,Minute,Value (Times are PST for insolation in W/m^2)
2021,05,27,00,00,0.00
2021,05,27,00,01,0.00
2021,05,27,00,02,0.00
2021,05,27,00,03,0.00
2021,05,27,00,04,0.00
2021,05,27,00,05,0.00
2021,05,27,00,06,0.00
2021,05,27,00,07,0.00
2021,05,27,00,08,0.00
2021,05,27,00,09,0.00
2021,05,27,00,10,0.00
2021,05,27,00,11,0.00
2021,05,27,00,12,0.00
2021,05,27,00,13,0.00
2021,05,27,00,14,0.00
2021,05,27,00,15,0.00
2021,05,27,00,16,0.00
2021,05,27,00,17,0.00
2021,05,27,00,18,0.00
2021,05,27,00,19,0.00
2021,05,27,00,20,0.00
2021,05,27,00,21,0.00
2021,05,27,00,22,0.00
2021,05,27,00,23,0.00
2021,05,27,00,24,0.00
2021,05,27,00,25,0.00
2021,05,27,00,26,0.00
2021,05,27,00,27,0.00
2021,05,27,00,28,0.00
2021,05,27,00,29,0.00
2021,05,27,00,30,0.00
2021,05,27,00,31,0.00
2021,05,27,00,32,0.00
2021,05,27,00,33,0.00
2021,05,27,00,34,0.00
2021,05,27,00,35,0.00
2021,05,27,00,36,0.00
2021,05,27,00,37,0.00
2021,05,27,00,38,0.00
2021,05,27,00,39,0.00
2021,05,27,00,40,0.00
2021,05,27,00,41,0.00
2021,05,27,00,42,0.00
2021,05,27,00,43,0.00
2021,05,27,00,44,0.00
2021,05,27,00,45,0.00
2021,05,27,00,46,0.00
2021,05,27,00,47,0.00
2021,05,27,00,48,0.00
2021,05,27,00,49,0.00
2021,05,27,00,50,0.00
2021,05,27,00,51,0.00
2021,05,27,00,52,0.00
2021,05,27,00,53,0.00
2021,05,27,00,54,0.00
2021,05,27,00,55,0.00
2021,05,27,00,56,0.00
2021,05,27,00,57,0.00
2021,05,27,00,58,0.00
2021,05,27,00,59,0.00
2021,05,27,01,00,0.00
2021,05,27,01,01,0.00
2021,05,27,01,02,0.00
2021,05,27,01,03,0.00
2021,05,27,01,04,0.00
2021,05,27,01,05,0.00
2021,05,27,01,06,0.00
2021,05,27,01,07,0.00
2021,05,27,01,08,0.00
2021,05,27,01,09,0.00
2021,05,27,01,10,0.00
2021,05,27,01,11,0.00
2021,05,27,01,12,0.00
2021,05,27,01,13,0.00
2021,05,27,01,14,0.00
2021,05,27,01,15,0.00
2021,05,27,01,16,0.00
2021,05,27,01,17,0.00
2021,05,27,01,18,0.00
2021,05,27,01,19,0.00
2021,05,27,01,20,0.00
2021,05,27,01,21,0.00
2021,05,27,01,22,0.00
2021,05,27,01,23,0.00
2021,05,27,01,24,0.00
2021,05,27,01,25,0.00
2021,05,27,01,26,0.00
2021,05,27,01,27,0.00
2021,05,27,01,28,0.00
2021,05,27,01,29,0.00
2021,05,27,01,30,0.00
2021,05,27,01,31,0.00
2021,05,27,01,32,0.00
2021,05,27,01,33,0.00
2021,05,27,01,34,0.00
2021,05,27,01,35,0.00
2021,05,27,01,36,0.00
2021,05,27,01,37,0.00
2021,05,27,01,38,0.00
2021,05,27,01,39,0.00
2021,05,27,01,40,0.00
2021,05,27,01,41,0.00
2021,05,27,01,42,0.00
2021,05,27,01,43,0.00
2021,05,27,01,44,0.00
2021,05,27,01,45,0.00
2021,05,27,01,46,0.00
2021,05,27,01,47,0.00
2021,05,27,01,48,0.00
2021,05,27,01,49,0.00
2021,05,27,01,50,0.00
2021,05,27,01,51,0.00
2021,05,27,01,52,0.00
2021,05,27,01,53,0.00
2021,05,27,01,54,0.00
2021,05,27,01,55,0.00
2021,05,27,01,56,0.00
2021,05,27,01,57,0.00
2021,05,27,01,58,0.00
2021,05,27,01,59,0.00
2021,05,27,02,00,0.00
2021,05,27,02,01,0.00
2021,05,27,02,02,0.00
2021,05,27,02,03,0.00
2021,05,27,02,04,0.00
2021,05,27,02,05,0.00
2021,05,27,02,06,0.00
2021,05,27,02,07,0.00
2021,05,27,02,08,0.00
2021,05,27,02,09,0.00
2021,05,27,02,10,0.00
2021,05,27,02,11,0.00
2021,05,27,02,12,0.00
2021,05,27,02,13,0.00
2021,05,27,02,14,0.00
2021,05,27,02,15,0.00
2021,05,27,02,16,0.00
2021,05,27,02,17,0.00
2021,05,27,02,18,0.00
2021,05,27,02,19,0.00
2021,05,27,02,20,0.00
2021,05,27,02,21,0.00
2021,05,27,02,22,0.00
2021,05,27,02,23,0.00
2021,05,27,02,24,0.00
2021,05,27,02,25,0.00
2021,05,27,02,26,0.00
2021,05,27,02,27,0.00
2021,05,27,02,28,0.00
2021,05,27,02,29,0.00
2021,05,27,02,30,0.00
2021,05,27,02,31,0.00
2021,05,27,02,32,0.00
2021,05,27,02,33,0.00
2021,05,27,02,34,0.00
2021,05,27,02,35,0.00
2021,05,27,02,36,0.00
2021,05,27,02,37,0.00
2021,05,27,02,38,0.00
2021,05,27,02,39,0.00
2021,05,27,02,40,0.00
2021,05,27,02,41,0.00
2021,05,27,02,42,0.00
2021,05,27,02,43,0.00
2021,05,27,02,44,0.00
2021,05,27,02,45,0.00
2021,05,27,02,46,0.00
2021,05,27,02,47,0.00
2021,05,27,02,48,0.00
2021,05,27,02,49,0.00
2021,05,27,02,50,0.00
2021,05,27,02,51,0.00
2021,05,27,02,52,0.00
2021,05,27,02,53,0.00
2021,05,27,02,54,0.00
2021,05,27,02,55,0.00
2021,05,27,02,56,0.00
2021,05,27,02,57,0.00
2021,05,27,02,58,0.00
2021,05,27,02,59,0.00
2021,05,27,03,00,0.00
2021,05,27,03,01,0.00
2021,05,27,03,02,0.00
2021,05,27,03,03,0.00
2021,05,27,03,04,0.00
2021,05,27,03,05,0.00
2021,05,27,03,06,0.00
2021,05,27,03,07,0.00
2021,05,27,03,08,0.00
2021,05,27,03,09,0.00
2021,05,27,03,10,0.00
2021,05,27,03,11,0.00
2021,05,27,03,12,0.00
2021,05,27,03,13,0.00
2021,05,27,03,14,0.00
2021,05,27,03,15,0.00
2021,05,27,03,16,0.00
2021,05,27,03,17,0.00
2021,05,27,03,18,0.00
2021,05,27,03,19,0.00
2021,05,27,03,20,0.00
2021,05,27,03,21,0.00
2021,05,27,03,22,0.00
2021,05,27,03,23,0.00
2021,05,27,03,24,0.00
2021,05,27,03,25,0.00
2021,05,27,03,26,0.00
2021,05,27,03,27,0.00
2021,05,27,03,28,0.00
2021,05,27,03,29,0.00
2021,05,27,03,30,0.00
2021,05,27,03,31,0.00
2021,05,27,03,32,0.00
2021,05,27,03,33,0.00
2021,05,27,03,34,0.00
2021,05,27,03,35,0.00
2021,05,27,03,36,0.00
2021,05,27,03,37,0.00
2021,05,27,03,38,0.00
2021,05,27,03,39,0.00
2021,05,27,03,40,0.00
2021,05,27,03,41,0.00
2021,05,27,03,42,0.00
2021,05,27,03,43,0.00
2021,05,27,03,44,0.00
2021,05,27,03,45,0.00
2021,05,27,03,46,0.00
2021,05,27,03,47,0.00
2021,05,27,03,48,0.00
2021,05,27,03,49,0.00
2021,05,27,03,50,0.00
2021,05,27,03,51,0.00
2021,05,27,03,52,0.00
2021,05,27,03,53,0.00
2021,05,27,03,54,0.00
2021,05,27,03,55,0.00
2021,05,27,03,56,0.00
2021,05,27,03,57,0.00
2021,05,27,03,58,0.00
2021,05,27,03,59,0.00
2021,05,27,04,00,0.00
2021,05,27,04,01,0.00
2021,05,27,04,02,0.00
2021,05,27,04,03,0.00
2021,05,27,04,04,0.00
2021,05,27,04,05,0.00
2021,05,27,04,06,0.00
2021,05,27,04,07,0.00
2021,05,27,04,08,0.00
2021,05,27,04,09,0.00
2021,05,27,04,10,0.00
2021,05,27,04,11,0.00
2021,05,27,04,12,0.00
2021,05,27,04,13,0.00
2021,05,27,04,14,0.00
2021,05,27,04,15,0.00
2021,05,27,04,16,0.00
2021,05,27,04,17,0.00
2021,05,27,04,18,0.00
2021,05,27,04,19,0.00
2021,05,27,04,20,0.00
2021,05,27,04,21,0.00
2021,05,27,04,22,0.00
2021,05,27,04,23,0.00
2021,05,27,04,24,0.00
2021,05,27,04,25,0.00
2021,05,27,04,26,0.00
2021,05,27,04,27,0.00
2021,05,27,04,28,0.00
2021,05,27,04,29,0.00
2021,05,27,04,30,0.00
2021,05,27,04,31,0.00
2021,05,27,04,32,0.00
2021,05,27,04,33,0.00
2021,05,27,04,34,0.00
2021,05,27,04,35,0.00
2021,05,27,04,36,0.00
2021,05,27,04,37,0.00
2021,05,27,04,38,0.00
2021,05,27,04,39,0.00
2021,05,27,04,40,0.00
2021,05,27,04,41,0.00
2021,05,27,04,42,0.00
2021,05,27,04,43,0.00
2021,05,27,04,44,0.00
2021,05,27,04,45,0.00
2021,05,27,04,46,0.00
2021,05,27,04,47,0.00
2021,05,27,04,48,0.00
2021,05,27,04,49,0.00
2021,05,27,04,50,0.00
2021,05,27,04,51,0.00
2021,05,27,04,52,0.00
2021,05,27,04,53,0.00
2021,05,27,04,54,0.00
2021,05,27,04,55,0.00
2021,05,27,04,56,0.00
2021,05,27,04,57,0.00
2021,05,27,04,58,0.00
2021,05,27,04,59,0.00
2021,05,27,05,00,0.00
2021,05,27,05,01,0.00
2021,05,27,05,02,0.00
2021,05,27,05,03,0.00
2021,05,27,05,04,0.00
2021,05,27,05,05,0.00
2021,05,27,05,06,0.00
2021,05,27,05,07,0.00
2021,05,27,05,08,0.00
2021,05,27,05,09,0.00
2021,05,27,05,10,0.00
2021,05,27,05,11,0.00
2021,05,27,05,12,0.00
2021,05,27,05,13,0.00
2021,05,27,05,14,0.00
2021,05,27,05,15,0.00
2021,05,27,05,16,0.00
2021,05,27,05,17,0.00
2021,05,27,05,18,0.00
2021,05,27,05,19,0.00
2021,05,27,05,20,0.00
2021,05,27,05,21,0.00
2021,05,27,05,22,0.00
2021,05,27,05,23,0.00
2021,05,27,05,24,0.00
2021,05,27,05,25,0.00
2021,05,27,05,26,0.00
2021,05,27,05,27,0.00
2021,05,27,05,28,0.00
2021,05,27,05,29,0.00
2021,05,27,05,30,0.00
2021,05,27,05,31,0.00
2021,05,27,05,32,0.00
2021,05,27,05,33,0.00
2021,05,27,05,34,0.00
2021,05,27,05,35,0.00
2021,05,27,05,36,0.00
2021,05,27,05,37,0.00
2021,05,27,05,38,0.00
2021,05,27,05,39,0.00
2021,05,27,05,40,0.00
2021,05,27,05,41,4.50
2021,05,27,05,42,5.00
2021,05,27,05,43,5.00
2021,05,27,05,44,5.60
2021,05,27,05,45,7.00
2021,05,27,05,46,7.00
2021,05,27,05,47,7.00
2021,05,27,05,48,7.00
2021,05,27,05,49,7.00
2021,05,27,05,50,6.80
2021,05,27,05,51,5.00
2021,05,27,05,52,5.00
2021,05,27,05,53,5.00
2021,05,27,05,54,5.00
2021,05,27,05,55,5.00
2021,05,27,05,56,5.00
2021,05,27,05,57,6.70
2021,05,27,05,58,7.00
2021,05,27,05,59,5.00
2021,05,27,06,00,5.00
2021,05,27,06,01,5.00
2021,05,27,06,02,5.00
2021,05,27,06,03,5.00
2021,05,27,06,04,6.30
2021,05,27,06,05,7.00
2021,05,27,06,06,7.00
2021,05,27,06,07,7.20
2021,05,27,06,08,9.50
2021,05,27,06,09,13.10
2021,05,27,06,10,17.10
2021,05,27,06,11,19.00
2021,05,27,06,12,18.40
2021,05,27,06,13,18.00
2021,05,27,06,14,13.50
2021,05,27,06,15,11.10
2021,05,27,06,16,11.00
2021,05,27,06,17,11.60
2021,05,27,06,18,15.30
2021,05,27,06,19,19.80
2021,05,27,06,20,26.50
2021,05,27,06,21,31.90
2021,05,27,06,22,33.00
2021,05,27,06,23,30.60
2021,05,27,06,24,25.20
2021,05,27,06,25,18.20
2021,05,27,06,26,14.00
2021,05,27,06,27,14.00
2021,05,27,06,28,13.10
2021,05,27,06,29,12.00
2021,05,27,06,30,13.30
2021,05,27,06,31,15.50
2021,05,27,06,32,17.70
2021,05,27,06,33,19.00
2021,05,27,06,34,19.40
2021,05,27,06,35,22.30
2021,05,27,06,36,25.00
2021,05,27,06,37,23.20
2021,05,27,06,38,19.80
2021,05,27,06,39,19.00
2021,05,27,06,40,20.60
2021,05,27,06,41,22.80
2021,05,27,06,42,26.60
2021,05,27,06,43,30.40
2021,05,27,06,44,31.40
2021,05,27,06,45,28.20
2021,05,27,06,46,24.40
2021,05,27,06,47,21.70
2021,05,27,06,48,21.00
2021,05,27,06,49,21.00
2021,05,27,06,50,22.90
2021,05,27,06,51,23.30
2021,05,27,06,52,25.00
2021,05,27,06,53,25.00
2021,05,27,06,54,25.50
2021,05,27,06,55,27.20
2021,05,27,06,56,29.30
2021,05,27,06,57,31.60
2021,05,27,06,58,34.70
2021,05,27,06,59,40.40
2021,05,27,07,00,44.00
2021,05,27,07,01,43.40
2021,05,27,07,02,42.80
2021,05,27,07,03,44.00
2021,05,27,07,04,45.80
2021,05,27,07,05,44.80
2021,05,27,07,06,45.60
2021,05,27,07,07,53.20
2021,05,27,07,08,73.20
2021,05,27,07,09,92.10
2021,05,27,07,10,101.80
2021,05,27,07,11,104.50
2021,05,27,07,12,100.20
2021,05,27,07,13,92.90
2021,05,27,07,14,99.70
2021,05,27,07,15,112.10
2021,05,27,07,16,120.30
2021,05,27,07,17,115.70
2021,05,27,07,18,104.80
2021,05,27,07,19,100.00
2021,05,27,07,20,102.00
2021,05,27,07,21,104.60
2021,05,27,07,22,99.10
2021,05,27,07,23,92.20
2021,05,27,07,24,94.60
2021,05,27,07,25,105.00
2021,05,27,07,26,104.40
2021,05,27,07,27,100.70
2021,05,27,07,28,97.60
2021,05,27,07,29,97.00
2021,05,27,07,30,97.00
2021,05,27,07,31,97.80
2021,05,27,07,32,98.00
2021,05,27,07,33,95.10
2021,05,27,07,34,92.60
2021,05,27,07,35,90.70
2021,05,27,07,36,90.40
2021,05,27,07,37,92.90
2021,05,27,07,38,96.70
2021,05,27,07,39,100.70
2021,05,27,07,40,102.00
2021,05,27,07,41,100.20
2021,05,27,07,42,100.20
2021,05,27,07,43,102.00
2021,05,27,07,44,102.00
2021,05,27,07,45,99.10
2021,05,27,07,46,96.00
2021,05,27,07,47,100.20
2021,05,27,07,48,108.60
2021,05,27,07,49,118.60
2021,05,27,07,50,124.50
2021,05,27,07,51,122.70
2021,05,27,07,52,120.20
2021,05,27,07,53,118.00
2021,05,27,07,54,120.10
2021,05,27,07,55,132.90
2021,05,27,07,56,154.90
2021,05,27,07,57,163.00
2021,05,27,07,58,147.80
2021,05,27,07,59,124.90
2021,05,27,08,00,112.90
2021,05,27,08,01,107.90
2021,05,27,08,02,101.80
2021,05,27,08,03,93.30
2021,05,27,08,04,88.70
2021,05,27,08,05,89.40
2021,05,27,08,06,90.80
2021,05,27,08,07,92.80
2021,05,27,08,08,97.50
2021,05,27,08,09,102.80
2021,05,27,08,10,105.70
2021,05,27,08,11,105.70
2021,05,27,08,12,104.00
2021,05,27,08,13,95.10
2021,05,27,08,14,85.80
2021,05,27,08,15,83.20
2021,05,27,08,16,83.10
2021,05,27,08,17,84.90
2021,05,27,08,18,91.80
2021,05,27,08,19,98.80
2021,05,27,08,20,104.40
2021,05,27,08,21,115.10
2021,05,27,08,22,128.50
2021,05,27,08,23,144.00
2021,05,27,08,24,163.20
2021,05,27,08,25,181.00
2021,05,27,08,26,179.90
2021,05,27,08,27,171.90
2021,05,27,08,28,163.20
2021,05,27,08,29,156.40
2021,05,27,08,30,155.60
2021,05,27,08,31,156.00
2021,05,27,08,32,153.50
2021,05,27,08,33,152.60
2021,05,27,08,34,144.10
2021,05,27,08,35,131.20
2021,05,27,08,36,122.30
2021,05,27,08,37,121.00
2021,05,27,08,38,126.80
2021,05,27,08,39,144.00
2021,05,27,08,40,171.60
2021,05,27,08,41,206.20
2021,05,27,08,42,238.90
2021,05,27,08,43,268.90
2021,05,27,08,44,330.10
2021,05,27,08,45,287.40
2021,05,27,08,46,270.80
2021,05,27,08,47,245.20
2021,05,27,08,48,223.80
2021,05,27,08,49,215.20
2021,05,27,08,50,214.00
2021,05,27,08,51,220.90
2021,05,27,08,52,228.00
2021,05,27,08,53,224.40
2021,05,27,08,54,223.00
2021,05,27,08,55,233.50
2021,05,27,08,56,244.80
2021,05,27,08,57,256.30
2021,05,27,08,58,254.10
2021,05,27,08,59,243.50
2021,05,27,09,00,267.10
2021,05,27,09,01,404.00
2021,05,27,09,02,510.10
2021,05,27,09,03,722.00
2021,05,27,09,04,711.00
2021,05,27,09,05,719.00
2021,05,27,09,06,456.90
2021,05,27,09,07,387.00
2021,05,27,09,08,387.00
2021,05,27,09,09,444.70
2021,05,27,09,10,654.10
2021,05,27,09,11,628.00
2021,05,27,09,12,605.60
2021,05,27,09,13,598.40
2021,05,27,09,14,598.00
2021,05,27,09,15,598.80
2021,05,27,09,16,605.60
2021,05,27,09,17,629.20
2021,05,27,09,18,631.00
2021,05,27,09,19,631.00
2021,05,27,09,20,631.00
2021,05,27,09,21,631.00
2021,05,27,09,22,631.00
2021,05,27,09,23,631.00
2021,05,27,09,24,631.00
2021,05,27,09,25,615.10
2021,05,27,09,26,607.70
2021,05,27,09,27,607.80
2021,05,27,09,28,616.20
2021,05,27,09,29,623.40
2021,05,27,09,30,631.40
2021,05,27,09,31,640.50
2021,05,27,09,32,655.60
2021,05,27,09,33,675.10
2021,05,27,09,34,706.50
2021,05,27,09,35,751.90
2021,05,27,09,36,778.40
2021,05,27,09,37,751.00
2021,05,27,09,38,751.00
2021,05,27,09,39,751.00
2021,05,27,09,40,851.90
2021,05,27,09,41,868.50
2021,05,27,09,42,786.40
2021,05,27,09,43,801.70
2021,05,27,09,44,907.00
2021,05,27,09,45,907.00
2021,05,27,09,46,907.00
2021,05,27,09,47,817.30
2021,05,27,09,48,764.30
2021,05,27,09,49,745.20
2021,05,27,09,50,737.00
2021,05,27,09,51,722.60
2021,05,27,09,52,479.20
2021,05,27,09,53,527.70
2021,05,27,09,54,520.80
2021,05,27,09,55,528.00
2021,05,27,09,56,473.90
2021,05,27,09,57,516.30
2021,05,27,09,58,543.00
2021,05,27,09,59,545.90
2021,05,27,10,00,604.80
2021,05,27,10,01,661.90
2021,05,27,10,02,665.70
2021,05,27,10,03,626.00
2021,05,27,10,04,724.40
2021,05,27,10,05,794.00
2021,05,27,10,06,793.00
2021,05,27,10,07,504.90
2021,05,27,10,08,402.70
2021,05,27,10,09,346.00
2021,05,27,10,10,346.00
2021,05,27,10,11,346.00
2021,05,27,10,12,346.00
2021,05,27,10,13,502.90
2021,05,27,10,14,559.50
2021,05,27,10,15,533.00
2021,05,27,10,16,533.00
2021,05,27,10,17,536.70
2021,05,27,10,18,568.00
2021,05,27,10,19,568.00
2021,05,27,10,20,568.00
2021,05,27,10,21,452.00
2021,05,27,10,22,344.00
2021,05,27,10,23,336.50
2021,05,27,10,24,334.30
2021,05,27,10,25,329.00
2021,05,27,10,26,322.30
2021,05,27,10,27,306.40
2021,05,27,10,28,307.20
2021,05,27,10,29,324.50
2021,05,27,10,30,342.80
2021,05,27,10,31,370.50
2021,05,27,10,32,433.70
2021,05,27,10,33,465.90
2021,05,27,10,34,536.20
2021,05,27,10,35,538.40
2021,05,27,10,36,540.00
2021,05,27,10,37,575.20
2021,05,27,10,38,600.10
2021,05,27,10,39,522.60
2021,05,27,10,40,433.20
2021,05,27,10,41,369.30
2021,05,27,10,42,333.60
2021,05,27,10,43,311.40
2021,05,27,10,44,301.70
2021,05,27,10,45,300.40
2021,05,27,10,46,294.40
2021,05,27,10,47,281.40
2021,05,27,10,48,268.40
2021,05,27,10,49,257.40
2021,05,27,10,50,244.90
2021,05,27,10,51,221.60
2021,05,27,10,52,194.30
2021,05,27,10,53,160.90
2021,05,27,10,54,135.00
2021,05,27,10,55,119.70
2021,05,27,10,56,111.90
2021,05,27,10,57,106.20
2021,05,27,10,58,102.60
2021,05,27,10,59,100.20
2021,05,27,11,00,102.30
2021,05,27,11,01,106.70
2021,05,27,11,02,116.20
2021,05,27,11,03,126.20
2021,05,27,11,04,133.70
2021,05,27,11,05,141.60
2021,05,27,11,06,149.20
2021,05,27,11,07,155.20
2021,05,27,11,08,154.70
2021,05,27,11,09,146.60
2021,05,27,11,10,138.50
2021,05,27,11,11,139.40
2021,05,27,11,12,149.20
2021,05,27,11,13,157.90
2021,05,27,11,14,163.20
2021,05,27,11,15,169.50
2021,05,27,11,16,179.90
2021,05,27,11,17,196.00
2021,05,27,11,18,217.60
2021,05,27,11,19,243.30
2021,05,27,11,20,263.90
2021,05,27,11,21,275.70
2021,05,27,11,22,279.00
2021,05,27,11,23,278.30
2021,05,27,11,24,274.80
2021,05,27,11,25,274.00
2021,05,27,11,26,272.90
2021,05,27,11,27,285.80
2021,05,27,11,28,321.90
2021,05,27,11,29,381.50
2021,05,27,11,30,434.60
2021,05,27,11,31,481.40
2021,05,27,11,32,432.10
2021,05,27,11,33,416.00
2021,05,27,11,34,437.20
2021,05,27,11,35,422.50
2021,05,27,11,36,417.60
2021,05,27,11,37,403.40
2021,05,27,11,38,417.30
2021,05,27,11,39,450.40
2021,05,27,11,40,440.20
2021,05,27,11,41,423.10
2021,05,27,11,42,426.50
2021,05,27,11,43,413.40
2021,05,27,11,44,377.00
2021,05,27,11,45,355.50
2021,05,27,11,46,349.70
2021,05,27,11,47,352.00
2021,05,27,11,48,343.80
2021,05,27,11,49,343.20
2021,05,27,11,50,361.00
2021,05,27,11,51,365.20
2021,05,27,11,52,354.70
2021,05,27,11,53,370.10
2021,05,27,11,54,387.40
2021,05,27,11,55,387.50
2021,05,27,11,56,380.40
2021,05,27,11,57,363.00
2021,05,27,11,58,358.50
2021,05,27,11,59,365.80
2021,05,27,12,00,378.00
2021,05,27,12,01,374.00
2021,05,27,12,02,353.30
2021,05,27,12,03,341.80
2021,05,27,12,04,347.50
2021,05,27,12,05,356.40
2021,05,27,12,06,376.70
2021,05,27,12,07,380.50
2021,05,27,12,08,392.50
2021,05,27,12,09,433.20
2021,05,27,12,10,480.00
2021,05,27,12,11,570.00
2021,05,27,12,12,765.00
2021,05,27,12,13,619.10
2021,05,27,12,14,506.80
2021,05,27,12,15,473.10
2021,05,27,12,16,416.10
2021,05,27,12,17,406.30
2021,05,27,12,18,372.20
2021,05,27,12,19,353.50
2021,05,27,12,20,348.60
2021,05,27,12,21,355.00
2021,05,27,12,22,353.80
2021,05,27,12,23,341.10
2021,05,27,12,24,321.60
2021,05,27,12,25,309.50
2021,05,27,12,26,319.30
2021,05,27,12,27,332.70
2021,05,27,12,28,347.40
2021,05,27,12,29,359.10
2021,05,27,12,30,370.00
2021,05,27,12,31,366.60
2021,05,27,12,32,368.20
2021,05,27,12,33,384.50
2021,05,27,12,34,384.80
2021,05,27,12,35,377.60
2021,05,27,12,36,357.90
2021,05,27,12,37,334.40
2021,05,27,12,38,315.40
2021,05,27,12,39,302.80
2021,05,27,12,40,310.00
2021,05,27,12,41,327.10
2021,05,27,12,42,335.40
2021,05,27,12,43,329.90
2021,05,27,12,44,337.00
2021,05,27,12,45,361.40
2021,05,27,12,46,392.40
2021,05,27,12,47,370.10
2021,05,27,12,48,320.20
2021,05,27,12,49,304.80
2021,05,27,12,50,290.80
2021,05,27,12,51,272.40
2021,05,27,12,52,263.80
2021,05,27,12,53,263.20
2021,05,27,12,54,267.00
2021,05,27,12,55,265.70
2021,05,27,12,56,264.00
2021,05,27,12,57,266.00
2021,05,27,12,58,286.70
2021,05,27,12,59,303.80
2021,05,27,13,00,313.80
2021,05,27,13,01,341.00
2021,05,27,13,02,341.00
2021,05,27,13,03,391.50
2021,05,27,13,04,478.00
2021,05,27,13,05,478.00
2021,05,27,13,06,419.20
2021,05,27,13,07,384.90
2021,05,27,13,08,362.40
2021,05,27,13,09,341.30
2021,05,27,13,10,327.40
2021,05,27,13,11,336.30
2021,05,27,13,12,360.80
2021,05,27,13,13,383.00
2021,05,27,13,14,440.60
2021,05,27,13,15,504.70
2021,05,27,13,16,508.20
2021,05,27,13,17,446.10
2021,05,27,13,18,353.60
2021,05,27,13,19,365.70
2021,05,27,13,20,405.10
2021,05,27,13,21,457.50
2021,05,27,13,22,466.80
2021,05,27,13,23,475.40
2021,05,27,13,24,489.00
2021,05,27,13,25,489.00
2021,05,27,13,26,671.00
2021,05,27,13,27,706.60
2021,05,27,13,28,840.00
2021,05,27,13,29,970.90
2021,05,27,13,30,1151.00
2021,05,27,13,31,1151.00
2021,05,27,13,32,1151.00
2021,05,27,13,33,1151.00
2021,05,27,13,34,449.20
2021,05,27,13,35,417.60
2021,05,27,13,36,464.40
2021,05,27,13,37,495.80
2021,05,27,13,38,518.40
2021,05,27,13,39,516.90
2021,05,27,13,40,465.10
2021,05,27,13,41,425.80
2021,05,27,13,42,420.00
2021,05,27,13,43,418.80
2021,05,27,13,44,398.10
2021,05,27,13,45,397.70
2021,05,27,13,46,377.80
2021,05,27,13,47,364.30
2021,05,27,13,48,360.70
2021,05,27,13,49,373.20
2021,05,27,13,50,389.10
2021,05,27,13,51,398.30
2021,05,27,13,52,389.70
2021,05,27,13,53,387.00
2021,05,27,13,54,386.40
2021,05,27,13,55,384.10
2021,05,27,13,56,381.40
2021,05,27,13,57,377.50
2021,05,27,13,58,386.50
2021,05,27,13,59,382.40
2021,05,27,14,00,377.70
2021,05,27,14,01,362.20
2021,05,27,14,02,332.60
2021,05,27,14,03,302.00
2021,05,27,14,04,290.90
2021,05,27,14,05,293.10
2021,05,27,14,06,297.40
2021,05,27,14,07,299.00
2021,05,27,14,08,292.70
2021,05,27,14,09,290.70
2021,05,27,14,10,298.80
2021,05,27,14,11,307.60
2021,05,27,14,12,313.80
2021,05,27,14,13,323.50
2021,05,27,14,14,335.30
2021,05,27,14,15,348.10
2021,05,27,14,16,356.20
2021,05,27,14,17,352.50
2021,05,27,14,18,343.40
2021,05,27,14,19,329.80
2021,05,27,14,20,314.80
2021,05,27,14,21,300.80
2021,05,27,14,22,281.60
2021,05,27,14,23,270.80
2021,05,27,14,24,274.20
2021,05,27,14,25,280.20
2021,05,27,14,26,281.40
2021,05,27,14,27,291.60
2021,05,27,14,28,319.10
2021,05,27,14,29,352.70
2021,05,27,14,30,394.60
2021,05,27,14,31,417.20
2021,05,27,14,32,396.10
2021,05,27,14,33,355.80
2021,05,27,14,34,330.90
2021,05,27,14,35,318.10
2021,05,27,14,36,296.20
2021,05,27,14,37,273.00
2021,05,27,14,38,251.40
2021,05,27,14,39,232.90
2021,05,27,14,40,222.60
2021,05,27,14,41,210.40
2021,05,27,14,42,194.20
2021,05,27,14,43,183.30
2021,05,27,14,44,179.30
2021,05,27,14,45,182.30
2021,05,27,14,46,184.90
2021,05,27,14,47,177.80
2021,05,27,14,48,166.20
2021,05,27,14,49,158.10
2021,05,27,14,50,157.60
2021,05,27,14,51,166.10
2021,05,27,14,52,179.50
2021,05,27,14,53,194.90
2021,05,27,14,54,209.00
2021,05,27,14,55,214.70
2021,05,27,14,56,203.50
2021,05,27,14,57,186.90
2021,05,27,14,58,172.80
2021,05,27,14,59,163.40
2021,05,27,15,00,167.10
2021,05,27,15,01,174.00
2021,05,27,15,02,171.60
2021,05,27,15,03,161.80
2021,05,27,15,04,153.20
2021,05,27,15,05,161.40
2021,05,27,15,06,193.00
2021,05,27,15,07,235.70
2021,05,27,15,08,251.90
2021,05,27,15,09,233.30
2021,05,27,15,10,242.80
2021,05,27,15,11,296.70
2021,05,27,15,12,348.30
2021,05,27,15,13,361.70
2021,05,27,15,14,352.90
2021,05,27,15,15,340.70
2021,05,27,15,16,306.80
2021,05,27,15,17,265.90
2021,05,27,15,18,240.50
2021,05,27,15,19,235.20
2021,05,27,15,20,223.60
2021,05,27,15,21,187.60
2021,05,27,15,22,152.40
2021,05,27,15,23,143.40
2021,05,27,15,24,155.80
2021,05,27,15,25,155.80
2021,05,27,15,26,151.40
2021,05,27,15,27,156.10
2021,05,27,15,28,164.40
2021,05,27,15,29,174.70
2021,05,27,15,30,181.90
2021,05,27,15,31,184.70
2021,05,27,15,32,166.80
2021,05,27,15,33,130.40
2021,05,27,15,34,123.00
2021,05,27,15,35,169.10
2021,05,27,15,36,141.50
2021,05,27,15,37,131.50
2021,05,27,15,38,132.80
2021,05,27,15,39,157.50
2021,05,27,15,40,191.10
2021,05,27,15,41,206.80
2021,05,27,15,42,201.80
2021,05,27,15,43,197.70
2021,05,27,15,44,210.50
2021,05,27,15,45,229.20
2021,05,27,15,46,227.60
2021,05,27,15,47,219.70
2021,05,27,15,48,226.50
2021,05,27,15,49,236.00
2021,05,27,15,50,236.00
2021,05,27,15,51,389.30
2021,05,27,15,52,326.10
2021,05,27,15,53,299.20
2021,05,27,15,54,348.00
2021,05,27,15,55,348.00
2021,05,27,15,56,348.00
2021,05,27,15,57,348.00
2021,05,27,15,58,348.00
2021,05,27,15,59,348.00
2021,05,27,16,00,348.00
2021,05,27,16,01,919.00
2021,05,27,16,02,919.00
2021,05,27,16,03,890.30
2021,05,27,16,04,828.00
2021,05,27,16,05,828.00
2021,05,27,16,06,751.80
2021,05,27,16,07,701.00
2021,05,27,16,08,701.00
2021,05,27,16,09,701.00
2021,05,27,16,10,607.60
2021,05,27,16,11,231.60
2021,05,27,16,12,225.00
2021,05,27,16,13,275.90
2021,05,27,16,14,338.00
2021,05,27,16,15,229.20
2021,05,27,16,16,170.00
2021,05,27,16,17,177.70
2021,05,27,16,18,179.00
2021,05,27,16,19,181.50
2021,05,27,16,20,198.30
2021,05,27,16,21,196.80
2021,05,27,16,22,172.00
2021,05,27,16,23,175.80
2021,05,27,16,24,185.00
2021,05,27,16,25,185.00
2021,05,27,16,26,185.00
2021,05,27,16,27,185.00
2021,05,27,16,28,255.30
2021,05,27,16,29,519.00
2021,05,27,16,30,519.00
2021,05,27,16,31,519.00
2021,05,27,16,32,340.40
2021,05,27,16,33,205.50
2021,05,27,16,34,189.80
2021,05,27,16,35,225.10
2021,05,27,16,36,227.00
2021,05,27,16,37,214.10
2021,05,27,16,38,198.40
2021,05,27,16,39,240.40
2021,05,27,16,40,268.00
2021,05,27,16,41,278.00
2021,05,27,16,42,773.00
2021,05,27,16,43,835.70
2021,05,27,16,44,889.00
2021,05,27,16,45,862.00
2021,05,27,16,46,754.00
2021,05,27,16,47,754.00
2021,05,27,16,48,724.30
2021,05,27,16,49,700.00
2021,05,27,16,50,700.00
2021,05,27,16,51,816.20
2021,05,27,16,52,838.00
2021,05,27,16,53,821.40
2021,05,27,16,54,742.20
2021,05,27,16,55,768.00
2021,05,27,16,56,546.60
2021,05,27,16,57,284.10
2021,05,27,16,58,326.40
2021,05,27,16,59,346.00
2021,05,27,17,00,633.30
2021,05,27,17,01,740.00
2021,05,27,17,02,740.00
2021,05,27,17,03,740.00
2021,05,27,17,04,740.00
2021,05,27,17,05,740.00
2021,05,27,17,06,451.40
2021,05,27,17,07,283.00
2021,05,27,17,08,646.90
2021,05,27,17,09,744.00
2021,05,27,17,10,744.00